Regional Weather Roundup
Issued by NWS

Home | Current Version | Previous Version | Text Only | Print | Product List | Glossary On
Versions: 1 2 3 4 5 6 7 8 9 10 11 12 13 14 15 16 17 18 19 20 21 22 23 24 25 26 27 28 29 30 31 32 33 34 35 36 37 38 39 40 41 42 43 44 45 46 47 48 49 50
000
ASUS45 KCYS 210710
RWRWY

WYOMING REGIONAL WEATHER ROUNDUP
NATIONAL WEATHER SERVICE CHEYENNE WY
1200 AM MST TUE FEB 21 2017

NOTE:  "FAIR" INDICATES FEW OR NO CLOUDS BELOW 12,000 FEET
WITH NO SIGNIFICANT WEATHER AND/OR OBSTRUCTIONS TO VISIBILITY.

WYZ001-210800-
YELLOWSTONE NATIONAL PARK

CITY           SKY/WX    TMP DP  RH WIND       PRES   REMARKS
LK YELLOWSTONE   N/A     30  30 100 VRB3      29.88F
W YELLOWSTONE  NOT AVBL

$$
WYZ002>013-054>058-071-098>099-210800-
NORTHERN WYOMING

CITY           SKY/WX    TMP DP  RH WIND       PRES   REMARKS
JACKSON        CLOUDY    34  34 100 SW9       29.91S WCI  26
CODY           FAIR      46  31  55 W14G25    29.78F
GREYBULL       FAIR      45  31  58 S10       29.80S
WORLAND        FAIR      42  32  67 SE16      29.81S
SHERIDAN       FAIR      52  27  38 SW14G20   29.74R
BUFFALO        FAIR      51  26  37 N16G23    29.78F
GILLETTE       FAIR      47  31  53 SW32G45   29.77R
HULETT         FAIR      46  32  57 S16G23    29.81S
NEWCASTLE      FAIR      46  28  49 S8        29.89S

$$
WYZ014>020-022>026-101>103-210800-
CENTRAL WYOMING

CITY           SKY/WX    TMP DP  RH WIND       PRES   REMARKS
BIG PINEY      FAIR      30  29  96 S9        29.97F WCI  22
PINEDALE       CLOUDY    32  32 100 S13       29.99S WCI  22
DUBOIS         LGT SNOW  32  30  93 S6        29.88F WCI  26
LANDER         FAIR      44  32  62 SW24G38   29.85F
RIVERTON       FAIR      39  30  70 S10       29.88F WCI  32
CASPER         FAIR      43  31  62 SW25G44   29.93F
DOUGLAS        FAIR      49  29  46 W26G39    29.90R

$$
WYZ021-027>030-104>119-210800-
SOUTHERN WYOMING

CITY           SKY/WX    TMP DP  RH WIND       PRES   REMARKS
EVANSTON       CLOUDY    38  31  76 SW25      30.02S WCI  27
KEMMERER         N/A     37  32  81 SW25G32   30.01S WCI  26
FORT BRIDGER   FAIR      42  32  68 SW18G26   30.05R
ROCK SPRINGS   FAIR      38  29  70 SW10      30.03F WCI  31
DIXON            N/A     41  32  69 S9        30.18S
RAWLINS        FAIR      39  29  67 SW33G44   30.02F WCI  27
SARATOGA       FAIR      39  28  65 S14G30    30.08S WCI  31
LARAMIE        FAIR      41  19  41 SW22G33   30.03R
CHEYENNE       FAIR      34  15  46 SW6       29.99F WCI  29
TORRINGTON     FAIR      44  20  38 N5        29.92F
PINE BLUFFS    FAIR      32  19  59 W12G17    29.98F WCI  23

$$



USA.gov is the U.S. government's official web portal to all federal, state and local government web resources and services.